Change the Weather History Date:

Monday, November 5, 2012

  Actual Average Record
Temperature  
Mean Temperature 62 °F -  
Max Temperature 79 °F 66 °F 82 °F (1999)
Min Temperature 46 °F 45 °F 36 °F (2011)
Degree Days  
Heating Degree Days 2    
Growing Degree Days 12 (Base 50)    
Moisture  
Dew Point 54 °F    
Average Humidity 82    
Maximum Humidity 100    
Minimum Humidity 44    
Precipitation  
Precipitation 0.00 in - - ()
Sea Level Pressure  
Sea Level Pressure 30.10 in    
Wind  
Wind Speed 4 mph (ENE)    
Max Wind Speed 9 mph    
Max Gust Speed -    
Visibility 9 miles    
Events      
Averages and records for this station are not official NWS values.
T = Trace of Precipitation, MM = Missing Value Source: NWS Daily Summary

Daily Weather History Graph

Daily Weather History Graph

Search for Another Location

Airport or City:

Trip Planner

Search our weather history database for the weather conditions in past years. The results will help you decide how hot, cold, wet, or windy it might be!

Date:

Astronomy

Nov. 05, 2012 Rise Set
Actual Time 6:38 AM PST 5:03 PM PST
Civil Twilight 6:11 AM PST 5:31 PM PST
Nautical Twilight 5:39 AM PST 6:02 PM PST
Astronomical Twilight 5:08 AM PST 6:33 PM PST
Moon 10:46 PM PST 12:01 PM PST
Length of Visible Light 11h 19m
Length of Day
10h 24m
Waning Gibbous, 62% of the Moon is Illuminated
Nov 5
Waning Gibbous
Nov 6
Last Quarter
Nov 13
New
Nov 20
First Quarter
Nov 28
Full

Hourly Weather History & Observations

Time (PST) Temp. Dew Point Humidity Pressure Visibility Wind Dir Wind Speed Gust Speed Precip Events Conditions
12:55 AM 51.3 °F 50.9 °F 99% 30.16 in 10.0 mi NE 3.5 mph - N/A   Clear
1:55 AM 49.8 °F 49.6 °F 99% 30.15 in 10.0 mi NE 3.5 mph - N/A   Clear
2:55 AM 49.1 °F 48.9 °F 99% 30.14 in 10.0 mi Calm Calm - N/A   Clear
3:55 AM 48.7 °F 48.6 °F 99% 30.14 in 10.0 mi Calm Calm - N/A   Clear
4:55 AM 49.1 °F 48.7 °F 99% 30.15 in 10.0 mi East 3.5 mph - N/A   Clear
5:55 AM 47.5 °F 47.3 °F 99% 30.16 in 10.0 mi NE 6.9 mph - N/A   Clear
6:55 AM 46.9 °F 46.9 °F 100% 30.17 in 10.0 mi East 4.6 mph - N/A   Clear
7:55 AM 54.3 °F 54.1 °F 99% 30.18 in 10.0 mi NE 3.5 mph - N/A   Clear
8:55 AM 59.2 °F 58.6 °F 98% 30.18 in 10.0 mi ENE 6.9 mph - N/A   Clear
9:55 AM 63.9 °F 58.8 °F 84% 30.17 in 10.0 mi NE 5.8 mph - N/A   Clear
10:55 AM 69.8 °F 58.1 °F 66% 30.15 in 10.0 mi NNE 9.2 mph - N/A   Clear
11:55 AM 73.2 °F 57.7 °F 58% 30.12 in 10.0 mi ENE 6.9 mph - N/A   Clear
12:58 PM 76.1 °F 57.9 °F 53% 30.09 in 10.0 mi ENE 6.9 mph - N/A   Clear
1:58 PM 77.5 °F 57.6 °F 50% 30.06 in 10.0 mi ENE 8.1 mph - N/A   Clear
2:58 PM 79.0 °F 55.6 °F 44% 30.05 in 10.0 mi NE 8.1 mph - N/A   Clear
3:58 PM 78.1 °F 55.0 °F 45% 30.05 in 10.0 mi NE 9.2 mph - N/A   Clear
4:48 PM 73.4 °F 57.2 °F 57% 30.04 in 2.0 mi ENE 5.8 mph - N/A   Haze
4:53 PM 73.4 °F 57.2 °F 57% 30.04 in 3.0 mi East 5.8 mph - N/A   Haze
4:58 PM 73.0 °F 58.5 °F 60% 30.04 in 10.0 mi East 5.8 mph - N/A   Clear
5:58 PM 67.6 °F 57.9 °F 71% 30.05 in 10.0 mi ESE 4.6 mph - N/A   Clear
6:58 PM 57.7 °F 55.9 °F 94% 30.05 in 10.0 mi NE 2.3 mph - N/A   Clear
7:58 PM 54.1 °F 53.4 °F 97% 30.05 in 3.0 mi Calm Calm - N/A   Clear
8:58 PM 54.1 °F 53.6 °F 98% 30.06 in 10.0 mi WNW 3.5 mph - N/A   Clear
9:58 PM 53.6 °F 53.1 °F 98% 30.05 in 10.0 mi Variable 2.3 mph - N/A   Clear
10:58 PM 54.1 °F 53.4 °F 97% 30.05 in 10.0 mi Calm Calm - N/A   Clear
11:58 PM 50.4 °F 50.0 °F 99% 30.05 in 10.0 mi ENE 3.5 mph - N/A   Clear